Time,TemperatureF,DewpointF,PressureIn,WindDirection,WindDirectionDegrees,WindSpeedMPH,WindSpeedGustMPH,Humidity,HourlyPrecipIn,Conditions,Clouds,dailyrainin,SoftwareType,DateUTC
2013-03-27 00:02:00,43.0,43.0,-100.00,SSE,165,1.0,7.0,99,-99.99,,,-99.99,,2013-03-27 07:02:00,
2013-03-27 00:12:00,43.0,42.0,-100.00,SE,125,5.0,7.0,99,-99.99,,,-99.99,,2013-03-27 07:12:00,
2013-03-27 00:22:00,43.0,42.0,-100.00,SE,125,5.0,7.0,99,-99.99,,,-99.99,,2013-03-27 07:22:00,
2013-03-27 00:32:00,43.0,42.0,-100.00,SE,125,5.0,7.0,99,-99.99,,,-99.99,,2013-03-27 07:32:00,
2013-03-27 01:22:00,42.0,41.0,-100.00,SSE,165,1.0,2.0,99,-99.99,,,-99.99,,2013-03-27 08:22:00,
2013-03-27 01:32:00,42.0,41.0,-100.00,ESE,120,6.0,9.0,99,-99.99,,,-99.99,,2013-03-27 08:32:00,
2013-03-27 01:43:00,42.0,41.0,-100.00,ESE,120,6.0,9.0,99,-99.99,,,-99.99,,2013-03-27 08:43:00,
2013-03-27 01:52:00,41.0,41.0,-100.00,SE,125,6.0,8.0,99,-99.99,,,-99.99,,2013-03-27 08:52:00,
2013-03-27 02:01:00,41.0,41.0,-100.00,SE,125,6.0,8.0,99,-99.99,,,-99.99,,2013-03-27 09:01:00,
2013-03-27 02:12:00,41.0,41.0,-100.00,ESE,115,6.0,9.0,99,-99.99,,,-99.99,,2013-03-27 09:12:00,
2013-03-27 02:22:00,41.0,41.0,-100.00,SE,125,2.0,7.0,99,-99.99,,,-99.99,,2013-03-27 09:22:00,
2013-03-27 02:32:00,41.0,41.0,-100.00,ESE,115,5.0,7.0,99,-99.99,,,-99.99,,2013-03-27 09:32:00,
2013-03-27 02:42:00,41.0,41.0,-100.00,ESE,115,5.0,7.0,99,-99.99,,,-99.99,,2013-03-27 09:42:00,
2013-03-27 02:52:00,41.0,41.0,-100.00,SE,125,5.0,9.0,99,-99.99,,,-99.99,,2013-03-27 09:52:00,
2013-03-27 03:02:00,41.0,41.0,-100.00,SE,125,5.0,9.0,99,-99.99,,,-99.99,,2013-03-27 10:02:00,
2013-03-27 03:12:00,41.0,40.0,-100.00,SSE,160,4.0,9.0,99,-99.99,,,-99.99,,2013-03-27 10:12:00,
2013-03-27 03:22:00,40.0,40.0,-100.00,ESE,120,6.0,9.0,99,-99.99,,,-99.99,,2013-03-27 10:22:00,
2013-03-27 03:32:00,41.0,41.0,-100.00,SE,125,7.0,9.0,99,-99.99,,,-99.99,,2013-03-27 10:32:00,
2013-03-27 03:42:00,41.0,41.0,-100.00,SE,125,7.0,9.0,99,-99.99,,,-99.99,,2013-03-27 10:42:00,
2013-03-27 03:52:00,41.0,41.0,-100.00,ESE,120,4.0,10.0,99,-99.99,,,-99.99,,2013-03-27 10:52:00,
2013-03-27 04:02:00,41.0,41.0,-100.00,ESE,120,4.0,10.0,99,-99.99,,,-99.99,,2013-03-27 11:02:00,
2013-03-27 04:12:00,41.0,41.0,-100.00,South,185,1.0,7.0,99,-99.99,,,-99.99,,2013-03-27 11:12:00,
2013-03-27 04:22:00,41.0,41.0,-100.00,SE,125,4.0,7.0,99,-99.99,,,-99.99,,2013-03-27 11:22:00,
2013-03-27 04:32:00,41.0,41.0,-100.00,SE,130,3.0,7.0,99,-99.99,,,-99.99,,2013-03-27 11:32:00,
2013-03-27 04:42:00,41.0,41.0,-100.00,SE,130,3.0,7.0,99,-99.99,,,-99.99,,2013-03-27 11:42:00,
2013-03-27 04:52:00,41.0,41.0,-100.00,SE,125,3.0,6.0,99,-99.99,,,-99.99,,2013-03-27 11:52:00,
2013-03-27 05:02:00,41.0,41.0,-100.00,SE,125,3.0,6.0,99,-99.99,,,-99.99,,2013-03-27 12:02:00,
2013-03-27 05:12:00,40.0,40.0,-100.00,ESE,110,4.0,6.0,99,-99.99,,,-99.99,,2013-03-27 12:12:00,
2013-03-27 05:22:00,41.0,41.0,-100.00,South,170,2.0,7.0,99,-99.99,,,-99.99,,2013-03-27 12:22:00,
2013-03-27 05:32:00,41.0,41.0,-100.00,SE,125,4.0,9.0,99,-99.99,,,-99.99,,2013-03-27 12:32:00,
2013-03-27 05:42:00,41.0,41.0,-100.00,SE,125,4.0,9.0,99,-99.99,,,-99.99,,2013-03-27 12:42:00,
2013-03-27 05:52:00,41.0,41.0,-100.00,ESE,115,5.0,9.0,99,-99.99,,,-99.99,,2013-03-27 12:52:00,
2013-03-27 06:02:00,41.0,41.0,-100.00,ESE,115,5.0,9.0,99,-99.99,,,-99.99,,2013-03-27 13:02:00,
2013-03-27 06:12:00,41.0,41.0,-100.00,ESE,120,7.0,10.0,99,-99.99,,,-99.99,,2013-03-27 13:12:00,
2013-03-27 06:22:00,41.0,41.0,-100.00,SE,125,4.0,12.0,99,-99.99,,,-99.99,,2013-03-27 13:22:00,
2013-03-27 06:32:00,40.0,40.0,-100.00,SE,130,1.0,6.0,99,-99.99,,,-99.99,,2013-03-27 13:32:00,
2013-03-27 06:42:00,40.0,40.0,-100.00,SE,130,1.0,6.0,99,-99.99,,,-99.99,,2013-03-27 13:42:00,
2013-03-27 06:52:00,41.0,41.0,-100.00,ESE,115,6.0,12.0,99,-99.99,,,-99.99,,2013-03-27 13:52:00,
2013-03-27 07:02:00,41.0,41.0,-100.00,ESE,115,6.0,12.0,99,-99.99,,,-99.99,,2013-03-27 14:02:00,
2013-03-27 07:11:00,41.0,41.0,-100.00,SSE,155,1.0,10.0,99,-99.99,,,-99.99,,2013-03-27 14:11:00,
2013-03-27 07:22:00,41.0,41.0,-100.00,SE,125,9.0,12.0,99,-99.99,,,-99.99,,2013-03-27 14:22:00,
2013-03-27 07:32:00,41.0,41.0,-100.00,South,175,1.0,9.0,99,-99.99,,,-99.99,,2013-03-27 14:32:00,
2013-03-27 07:42:00,41.0,41.0,-100.00,South,175,1.0,9.0,99,-99.99,,,-99.99,,2013-03-27 14:42:00,
2013-03-27 07:52:00,41.0,41.0,-100.00,ESE,120,7.0,11.0,99,-99.99,,,-99.99,,2013-03-27 14:52:00,
2013-03-27 08:02:00,41.0,41.0,-100.00,ESE,120,7.0,11.0,99,-99.99,,,-99.99,,2013-03-27 15:02:00,
2013-03-27 08:11:00,41.0,41.0,-100.00,SE,130,5.0,10.0,99,-99.99,,,-99.99,,2013-03-27 15:11:00,
2013-03-27 08:22:00,41.0,41.0,-100.00,SE,130,7.0,10.0,99,-99.99,,,-99.99,,2013-03-27 15:22:00,
2013-03-27 08:32:00,41.0,41.0,-100.00,SE,130,7.0,10.0,99,-99.99,,,-99.99,,2013-03-27 15:32:00,
2013-03-27 08:42:00,41.0,41.0,-100.00,SE,130,7.0,10.0,99,-99.99,,,-99.99,,2013-03-27 15:42:00,
2013-03-27 08:52:00,42.0,42.0,-100.00,SE,125,5.0,9.0,99,-99.99,,,-99.99,,2013-03-27 15:52:00,
2013-03-27 09:02:00,42.0,42.0,-100.00,SE,125,5.0,9.0,99,-99.99,,,-99.99,,2013-03-27 16:02:00,
2013-03-27 09:12:00,43.0,42.0,-100.00,SE,125,9.0,13.0,99,-99.99,,,-99.99,,2013-03-27 16:12:00,
2013-03-27 09:22:00,43.0,43.0,-100.00,SE,140,2.0,14.0,99,-99.99,,,-99.99,,2013-03-27 16:22:00,
2013-03-27 09:32:00,43.0,43.0,-100.00,SE,130,6.0,15.0,99,-99.99,,,-99.99,,2013-03-27 16:32:00,
2013-03-27 09:42:00,43.0,43.0,-100.00,SE,130,6.0,15.0,99,-99.99,,,-99.99,,2013-03-27 16:42:00,
2013-03-27 09:52:00,44.0,44.0,-100.00,SE,140,4.0,14.0,99,-99.99,,,-99.99,,2013-03-27 16:52:00,
2013-03-27 10:02:00,44.0,44.0,-100.00,SE,140,4.0,14.0,99,-99.99,,,-99.99,,2013-03-27 17:02:00,
2013-03-27 10:12:00,44.0,43.0,-100.00,SE,125,5.0,10.0,99,-99.99,,,-99.99,,2013-03-27 17:12:00,
2013-03-27 10:22:00,44.0,43.0,-100.00,SE,135,6.0,12.0,99,-99.99,,,-99.99,,2013-03-27 17:22:00,
2013-03-27 10:32:00,44.0,44.0,-100.00,ESE,120,6.0,16.0,99,-99.99,,,-99.99,,2013-03-27 17:32:00,
2013-03-27 10:44:00,44.0,44.0,-100.00,ESE,120,6.0,16.0,99,-99.99,,,-99.99,,2013-03-27 17:44:00,
2013-03-27 10:52:00,44.0,44.0,-100.00,SE,130,7.0,16.0,99,-99.99,,,-99.99,,2013-03-27 17:52:00,
2013-03-27 11:02:00,44.0,44.0,-100.00,SE,130,7.0,16.0,99,-99.99,,,-99.99,,2013-03-27 18:02:00,
2013-03-27 11:12:00,45.0,45.0,-100.00,ESE,120,7.0,21.0,99,-99.99,,,-99.99,,2013-03-27 18:12:00,
2013-03-27 11:22:00,47.0,46.0,-100.00,SE,125,8.0,22.0,99,-99.99,,,-99.99,,2013-03-27 18:22:00,
2013-03-27 11:32:00,47.0,46.0,-100.00,SE,125,9.0,19.0,99,-99.99,,,-99.99,,2013-03-27 18:32:00,
2013-03-27 11:42:00,47.0,46.0,-100.00,SE,125,9.0,19.0,99,-99.99,,,-99.99,,2013-03-27 18:42:00,
2013-03-27 11:52:00,47.0,46.0,-100.00,SE,125,9.0,19.0,99,-99.99,,,-99.99,,2013-03-27 18:52:00,
2013-03-27 12:02:00,47.0,46.0,-100.00,SE,125,9.0,19.0,99,-99.99,,,-99.99,,2013-03-27 19:02:00,
2013-03-27 12:12:00,47.0,47.0,-100.00,SE,140,9.0,21.0,99,-99.99,,,-99.99,,2013-03-27 19:12:00,
2013-03-27 12:21:00,49.0,48.0,-100.00,SE,125,9.0,22.0,95,-99.99,,,-99.99,,2013-03-27 19:21:00,
2013-03-27 12:32:00,49.0,46.0,-100.00,SE,130,9.0,21.0,88,-99.99,,,-99.99,,2013-03-27 19:32:00,
2013-03-27 12:42:00,49.0,46.0,-100.00,SE,130,9.0,21.0,88,-99.99,,,-99.99,,2013-03-27 19:42:00,
2013-03-27 12:52:00,49.0,46.0,-100.00,SE,130,9.0,21.0,88,-99.99,,,-99.99,,2013-03-27 19:52:00,
2013-03-27 13:02:00,49.0,46.0,-100.00,SE,130,9.0,21.0,88,-99.99,,,-99.99,,2013-03-27 20:02:00,
2013-03-27 13:12:00,51.0,44.0,-100.00,SE,130,9.0,26.0,78,-99.99,,,-99.99,,2013-03-27 20:12:00,
2013-03-27 13:22:00,50.0,44.0,-100.00,SE,125,12.0,24.0,80,-99.99,,,-99.99,,2013-03-27 20:22:00,
2013-03-27 13:32:00,50.0,44.0,-100.00,ESE,120,12.0,24.0,79,-99.99,,,-99.99,,2013-03-27 20:32:00,
2013-03-27 13:42:00,50.0,44.0,-100.00,ESE,120,12.0,24.0,79,-99.99,,,-99.99,,2013-03-27 20:42:00,
2013-03-27 13:52:00,50.0,45.0,-100.00,SE,125,11.0,20.0,83,-99.99,,,-99.99,,2013-03-27 20:52:00,
2013-03-27 14:02:00,50.0,45.0,-100.00,SE,125,11.0,20.0,83,-99.99,,,-99.99,,2013-03-27 21:02:00,
2013-03-27 14:12:00,49.0,45.0,-100.00,SE,130,9.0,22.0,85,-99.99,,,-99.99,,2013-03-27 21:12:00,
2013-03-27 14:22:00,51.0,44.0,-100.00,SE,125,11.0,22.0,77,-99.99,,,-99.99,,2013-03-27 21:22:00,
2013-03-27 14:32:00,52.0,44.0,-100.00,SE,125,12.0,24.0,75,-99.99,,,-99.99,,2013-03-27 21:32:00,
2013-03-27 14:43:00,52.0,44.0,-100.00,SE,125,12.0,24.0,75,-99.99,,,-99.99,,2013-03-27 21:43:00,
2013-03-27 14:52:00,53.0,43.0,-100.00,SE,130,11.0,22.0,69,-99.99,,,-99.99,,2013-03-27 21:52:00,
2013-03-27 15:02:00,53.0,43.0,-100.00,SE,130,11.0,22.0,69,-99.99,,,-99.99,,2013-03-27 22:02:00,
2013-03-27 15:12:00,54.0,42.0,-100.00,SE,130,9.0,21.0,65,-99.99,,,-99.99,,2013-03-27 22:12:00,
2013-03-27 15:23:00,54.0,43.0,-100.00,SE,125,7.0,21.0,64,-99.99,,,-99.99,,2013-03-27 22:23:00,
2013-03-27 15:32:00,54.0,42.0,-100.00,SE,130,9.0,19.0,64,-99.99,,,-99.99,,2013-03-27 22:32:00,
2013-03-27 15:42:00,54.0,42.0,-100.00,SE,130,9.0,19.0,64,-99.99,,,-99.99,,2013-03-27 22:42:00,
2013-03-27 15:52:00,53.0,42.0,-100.00,SE,125,11.0,22.0,64,-99.99,,,-99.99,,2013-03-27 22:52:00,
2013-03-27 16:02:00,53.0,42.0,-100.00,SE,125,11.0,22.0,64,-99.99,,,-99.99,,2013-03-27 23:02:00,
2013-03-27 16:12:00,54.0,42.0,-100.00,ESE,120,7.0,16.0,65,-99.99,,,-99.99,,2013-03-27 23:12:00,
2013-03-27 16:22:00,52.0,42.0,-100.00,SE,125,9.0,18.0,67,-99.99,,,-99.99,,2013-03-27 23:22:00,
2013-03-27 16:32:00,53.0,42.0,-100.00,SE,125,7.0,21.0,67,-99.99,,,-99.99,,2013-03-27 23:32:00,
2013-03-27 16:42:00,53.0,42.0,-100.00,SE,125,7.0,21.0,67,-99.99,,,-99.99,,2013-03-27 23:42:00,
2013-03-27 16:52:00,52.0,42.0,-100.00,SE,130,11.0,17.0,68,-99.99,,,-99.99,,2013-03-27 23:52:00,
2013-03-27 17:02:00,52.0,42.0,-100.00,SE,130,11.0,17.0,68,-99.99,,,-99.99,,2013-03-28 00:02:00,
2013-03-27 17:12:00,52.0,43.0,-100.00,SE,130,7.0,19.0,70,-99.99,,,-99.99,,2013-03-28 00:12:00,
2013-03-27 17:22:00,52.0,43.0,-100.00,SE,130,5.0,16.0,70,-99.99,,,-99.99,,2013-03-28 00:22:00,
2013-03-27 17:32:00,52.0,42.0,-100.00,SE,130,7.0,17.0,70,-99.99,,,-99.99,,2013-03-28 00:32:00,
2013-03-27 17:52:00,52.0,43.0,-100.00,SE,130,5.0,15.0,71,-99.99,,,-99.99,,2013-03-28 00:52:00,
2013-03-27 18:01:00,52.0,43.0,-100.00,SE,130,5.0,15.0,71,-99.99,,,-99.99,,2013-03-28 01:01:00,
2013-03-27 18:12:00,51.0,42.0,-100.00,SE,130,7.0,17.0,72,-99.99,,,-99.99,,2013-03-28 01:12:00,
2013-03-27 18:22:00,51.0,43.0,-100.00,SE,145,6.0,15.0,74,-99.99,,,-99.99,,2013-03-28 01:22:00,
2013-03-27 18:32:00,50.0,43.0,-100.00,SE,130,7.0,17.0,75,-99.99,,,-99.99,,2013-03-28 01:32:00,
2013-03-27 18:42:00,50.0,43.0,-100.00,SE,130,7.0,17.0,75,-99.99,,,-99.99,,2013-03-28 01:42:00,
2013-03-27 18:52:00,50.0,44.0,-100.00,SE,130,5.0,16.0,78,-99.99,,,-99.99,,2013-03-28 01:52:00,
2013-03-27 19:02:00,50.0,44.0,-100.00,SE,130,5.0,16.0,78,-99.99,,,-99.99,,2013-03-28 02:02:00,
2013-03-27 19:12:00,50.0,44.0,-100.00,SE,145,4.0,10.0,80,-99.99,,,-99.99,,2013-03-28 02:12:00,
2013-03-27 19:22:00,50.0,44.0,-100.00,SE,140,4.0,13.0,81,-99.99,,,-99.99,,2013-03-28 02:22:00,
2013-03-27 19:32:00,49.0,44.0,-100.00,SE,130,7.0,12.0,83,-99.99,,,-99.99,,2013-03-28 02:32:00,
2013-03-27 19:42:00,49.0,44.0,-100.00,SE,130,7.0,12.0,83,-99.99,,,-99.99,,2013-03-28 02:42:00,
2013-03-27 19:52:00,49.0,44.0,-100.00,SE,130,7.0,12.0,83,-99.99,,,-99.99,,2013-03-28 02:52:00,
2013-03-27 20:02:00,49.0,44.0,-100.00,SE,130,4.0,12.0,83,-99.99,,,-99.99,,2013-03-28 03:02:00,
2013-03-27 20:12:00,49.0,44.0,-100.00,SE,125,6.0,13.0,83,-99.99,,,-99.99,,2013-03-28 03:12:00,
2013-03-27 20:22:00,49.0,43.0,-100.00,SE,130,7.0,15.0,82,-99.99,,,-99.99,,2013-03-28 03:22:00,
2013-03-27 20:33:00,48.0,43.0,-100.00,SE,130,10.0,17.0,83,-99.99,,,-99.99,,2013-03-28 03:33:00,
2013-03-27 20:42:00,48.0,43.0,-100.00,SE,130,10.0,17.0,83,-99.99,,,-99.99,,2013-03-28 03:42:00,
2013-03-27 20:52:00,48.0,43.0,-100.00,SE,130,4.0,13.0,83,-99.99,,,-99.99,,2013-03-28 03:52:00,
2013-03-27 21:02:00,48.0,43.0,-100.00,SE,130,4.0,13.0,83,-99.99,,,-99.99,,2013-03-28 04:02:00,
2013-03-27 21:12:00,48.0,43.0,-100.00,SE,140,6.0,16.0,83,-99.99,,,-99.99,,2013-03-28 04:12:00,
2013-03-27 21:22:00,48.0,45.0,-100.00,South,180,2.0,13.0,89,-99.99,,,-99.99,,2013-03-28 04:22:00,
2013-03-27 21:32:00,47.0,46.0,-100.00,SE,130,5.0,9.0,98,-99.99,,,-99.99,,2013-03-28 04:32:00,
2013-03-27 21:42:00,47.0,46.0,-100.00,SE,130,5.0,9.0,98,-99.99,,,-99.99,,2013-03-28 04:42:00,
2013-03-27 21:52:00,46.0,46.0,-100.00,South,180,1.0,7.0,99,-99.99,,,-99.99,,2013-03-28 04:52:00,
2013-03-27 22:02:00,46.0,46.0,-100.00,South,180,1.0,7.0,99,-99.99,,,-99.99,,2013-03-28 05:02:00,
2013-03-27 22:12:00,46.0,46.0,-100.00,SE,130,6.0,9.0,99,-99.99,,,-99.99,,2013-03-28 05:12:00,
2013-03-27 22:22:00,45.0,45.0,-100.00,SE,125,7.0,14.0,99,-99.99,,,-99.99,,2013-03-28 05:22:00,
2013-03-27 22:32:00,45.0,45.0,-100.00,ESE,120,6.0,11.0,99,-99.99,,,-99.99,,2013-03-28 05:32:00,
2013-03-27 22:42:00,45.0,45.0,-100.00,ESE,120,6.0,11.0,99,-99.99,,,-99.99,,2013-03-28 05:42:00,
2013-03-27 22:52:00,45.0,45.0,-100.00,SE,135,3.0,12.0,99,-99.99,,,-99.99,,2013-03-28 05:52:00,
2013-03-27 23:02:00,45.0,45.0,-100.00,SE,135,3.0,12.0,99,-99.99,,,-99.99,,2013-03-28 06:02:00,
2013-03-27 23:12:00,44.0,44.0,-100.00,SE,145,2.0,7.0,99,-99.99,,,-99.99,,2013-03-28 06:12:00,
2013-03-27 23:22:00,45.0,45.0,-100.00,SE,125,10.0,13.0,99,-99.99,,,-99.99,,2013-03-28 06:22:00,
2013-03-27 23:32:00,45.0,45.0,-100.00,SE,125,9.0,16.0,99,-99.99,,,-99.99,,2013-03-28 06:32:00,
2013-03-27 23:42:00,45.0,45.0,-100.00,SE,125,9.0,16.0,99,-99.99,,,-99.99,,2013-03-28 06:42:00,
2013-03-27 23:52:00,45.0,45.0,-100.00,ESE,120,9.0,16.0,99,-99.99,,,-99.99,,2013-03-28 06:52:00,